NOZ9LP LFPG-ENGM

Flight info

Callsign NOZ9LP
Flight time N/A
Altitude 39000
Route NURMO DCT CMB DCT VEKIN DCT ADUTO DCT VICOT DCT AMADA DCT PIPEX DCT RIPAM
Aircraft B38M/M-SDE2E3GIJ1LRWXY/LB2

Departure

Time 2026-05-09 09:12
Airport Charles de Gaulle International Airport (LFPG)

Arrival

Time N/A
Airport Oslo-Gardermoen International Airport (ENGM)
Time Latitude Longitude Altitude Speed Heading
2026-05-09 08:28 49.00570 2.56663 336 ft 0 kts 175°
2026-05-09 08:56 49.00575 2.56663 336 ft 4 kts 174°
2026-05-09 08:56 49.00598 2.56659 335 ft 4 kts 181°
2026-05-09 08:56 49.00620 2.56669 335 ft 4 kts 233°
2026-05-09 08:56 49.00624 2.56703 335 ft 4 kts 276°
2026-05-09 08:57 49.00623 2.56732 334 ft 0 kts 265°
2026-05-09 09:00 49.00623 2.56715 332 ft 5 kts 269°
2026-05-09 09:01 49.00619 2.56613 336 ft 13 kts 265°
2026-05-09 09:01 49.00648 2.56489 336 ft 14 kts 322°
2026-05-09 09:01 49.00746 2.56453 336 ft 15 kts 353°
2026-05-09 09:01 49.00806 2.56336 334 ft 16 kts 267°
2026-05-09 09:02 49.00806 2.56259 337 ft 0 kts 261°
2026-05-09 09:02 49.00767 2.55925 336 ft 0 kts 261°
2026-05-09 09:02 49.00762 2.55872 336 ft 14 kts 262°
2026-05-09 09:02 49.00744 2.55681 336 ft 21 kts 262°
2026-05-09 09:03 49.00730 2.55452 336 ft 22 kts 265°
2026-05-09 09:03 49.00694 2.55276 336 ft 12 kts 256°
2026-05-09 09:03 49.00752 2.55197 337 ft 15 kts 344°
2026-05-09 09:03 49.00875 2.55143 348 ft 22 kts 344°
2026-05-09 09:04 49.01043 2.55071 359 ft 26 kts 344°
2026-05-09 09:04 49.01222 2.54994 358 ft 0 kts 344°
2026-05-09 09:04 49.01239 2.54986 360 ft 8 kts 343°
2026-05-09 09:04 49.01346 2.54939 359 ft 22 kts 344°
2026-05-09 09:05 49.01513 2.54895 357 ft 26 kts 355°
2026-05-09 09:05 49.01678 2.54875 357 ft 19 kts 355°
2026-05-09 09:05 49.01754 2.54862 359 ft 6 kts 339°
2026-05-09 09:05 49.01808 2.54796 359 ft 16 kts 308°
2026-05-09 09:06 49.01834 2.54586 357 ft 24 kts 265°
2026-05-09 09:06 49.01820 2.54321 359 ft 26 kts 265°
2026-05-09 09:06 49.01806 2.54064 357 ft 24 kts 265°
2026-05-09 09:06 49.01794 2.53830 360 ft 22 kts 265°
2026-05-09 09:07 49.01753 2.53098 359 ft 384 kts 265°
2026-05-09 09:07 49.01748 2.52997 358 ft 8 kts 266°
2026-05-09 09:07 49.01739 2.52820 363 ft 23 kts 265°
2026-05-09 09:07 49.01726 2.52563 358 ft 25 kts 265°
2026-05-09 09:08 49.01712 2.52290 363 ft 27 kts 265°
2026-05-09 09:08 49.01702 2.52098 361 ft 28 kts 265°
2026-05-09 09:08 49.01687 2.51823 363 ft 25 kts 265°
2026-05-09 09:08 49.01672 2.51550 361 ft 25 kts 265°
2026-05-09 09:09 49.01681 2.51299 361 ft 17 kts 319°
2026-05-09 09:09 49.01757 2.51266 357 ft 18 kts 355°
2026-05-09 09:09 49.01883 2.51251 358 ft 19 kts 355°
2026-05-09 09:09 49.02005 2.51290 363 ft 17 kts 43°
2026-05-09 09:10 49.02067 2.51423 367 ft 15 kts 71°
2026-05-09 09:10 49.00791 2.56718 337 ft 384 kts 175°
2026-05-09 09:10 49.01763 2.54071 357 ft 384 kts 139°
2026-05-09 09:10 49.02117 2.52002 368 ft 0 kts 91°
2026-05-09 09:11 49.02104 2.52116 368 ft 1 kts 79°
2026-05-09 09:11 49.02106 2.52128 368 ft 8 kts 80°
2026-05-09 09:11 49.02138 2.52654 372 ft 91 kts 85°
2026-05-09 09:11 49.02210 2.53992 371 ft 160 kts 85°
2026-05-09 09:12 49.02294 2.55801 960 ft 177 kts 84°
2026-05-09 09:12 49.02396 2.57665 2070 ft 172 kts 85°
2026-05-09 09:12 49.02507 2.59494 2847 ft 186 kts 86°
2026-05-09 09:12 49.02622 2.61603 3312 ft 213 kts 87°
2026-05-09 09:13 49.02747 2.63967 3884 ft 234 kts 87°
2026-05-09 09:13 49.02883 2.66549 4481 ft 254 kts 88°
2026-05-09 09:13 49.03022 2.69308 5224 ft 264 kts 88°
2026-05-09 09:13 49.03191 2.72125 6139 ft 271 kts 81°
2026-05-09 09:14 49.03880 2.74828 6973 ft 279 kts 56°
2026-05-09 09:14 49.05351 2.76808 7741 ft 288 kts 27°
2026-05-09 09:14 49.07254 2.77599 8623 ft 289 kts
2026-05-09 09:14 49.09274 2.77495 9483 ft 293 kts 356°
2026-05-09 09:15 49.11328 2.77416 10323 ft 298 kts 356°
2026-05-09 09:15 49.13471 2.77357 10764 ft 317 kts 357°
2026-05-09 09:15 49.15738 2.77323 11278 ft 331 kts 358°
2026-05-09 09:15 49.18054 2.77284 11978 ft 337 kts 358°
2026-05-09 09:16 49.20409 2.77228 12799 ft 341 kts 358°
2026-05-09 09:16 49.25218 2.77106 14322 ft 350 kts 358°
2026-05-09 09:16 49.27673 2.77041 15041 ft 354 kts 357°
2026-05-09 09:17 49.29989 2.76979 15739 ft 357 kts 357°
2026-05-09 09:17 49.32490 2.76912 16412 ft 361 kts 358°
2026-05-09 09:17 49.35022 2.76845 17083 ft 365 kts 358°
2026-05-09 09:17 49.37583 2.76776 17752 ft 369 kts 358°
2026-05-09 09:18 49.40167 2.76706 18402 ft 373 kts 358°
2026-05-09 09:18 49.42779 2.76636 18955 ft 377 kts 358°
2026-05-09 09:18 49.45388 2.76565 19500 ft 381 kts 358°
2026-05-09 09:18 49.48061 2.76492 20054 ft 384 kts 358°
2026-05-09 09:19 49.50748 2.76419 20591 ft 388 kts 358°
2026-05-09 09:19 49.53465 2.76344 21131 ft 391 kts 358°
2026-05-09 09:19 49.56171 2.76269 21667 ft 394 kts 358°
2026-05-09 09:19 49.58932 2.76193 22209 ft 397 kts 359°
2026-05-09 09:20 49.61712 2.76116 22717 ft 401 kts 359°
2026-05-09 09:20 49.64517 2.76038 23255 ft 405 kts 359°
2026-05-09 09:20 49.67350 2.75959 23762 ft 408 kts 359°
2026-05-09 09:20 49.70171 2.75880 24195 ft 411 kts 359°
2026-05-09 09:21 49.73045 2.75799 24647 ft 414 kts 359°
2026-05-09 09:21 49.75923 2.75718 25133 ft 416 kts 359°
2026-05-09 09:21 49.78842 2.75635 25552 ft 419 kts 359°
2026-05-09 09:21 49.81747 2.75971 25954 ft 421 kts 14°
2026-05-09 09:22 49.84469 2.77597 26372 ft 420 kts 31°
2026-05-09 09:22 49.86137 2.79146 26611 ft 423 kts 33°
2026-05-09 09:22 49.88661 2.81524 26993 ft 426 kts 33°
2026-05-09 09:22 49.92015 2.84747 27548 ft 429 kts 34°
2026-05-09 09:23 49.93730 2.86417 27822 ft 431 kts 34°
2026-05-09 09:23 49.96245 2.88878 28223 ft 433 kts 34°
2026-05-09 09:23 49.98815 2.91403 28620 ft 436 kts 34°
2026-05-09 09:23 50.01388 2.93935 29001 ft 439 kts 34°
2026-05-09 09:24 50.03982 2.96492 29382 ft 442 kts 34°
2026-05-09 09:24 50.06558 2.99034 29737 ft 445 kts 34°
2026-05-09 09:24 50.09181 3.01625 30099 ft 447 kts 34°
2026-05-09 09:24 50.11821 3.04236 30416 ft 450 kts 34°
2026-05-09 09:25 50.14466 3.06857 30735 ft 452 kts 34°
2026-05-09 09:25 50.17136 3.09504 31048 ft 453 kts 34°
2026-05-09 09:25 50.19805 3.12156 31377 ft 455 kts 34°
2026-05-09 09:25 50.22489 3.14795 31675 ft 457 kts 31°
2026-05-09 09:26 50.25342 3.16912 31987 ft 460 kts 25°
2026-05-09 09:26 50.28275 3.18962 32275 ft 462 kts 26°
2026-05-09 09:26 50.31220 3.21033 32567 ft 464 kts 25°
2026-05-09 09:26 50.34171 3.23106 32861 ft 466 kts 25°
2026-05-09 09:27 50.37128 3.25184 33225 ft 466 kts 25°
2026-05-09 09:27 50.40085 3.27296 33581 ft 466 kts 27°
2026-05-09 09:27 50.42961 3.29539 33969 ft 465 kts 27°
2026-05-09 09:27 50.45860 3.31789 34325 ft 464 kts 27°
2026-05-09 09:28 50.48754 3.34026 34652 ft 463 kts 27°
2026-05-09 09:28 50.51676 3.36216 34950 ft 464 kts 24°
2026-05-09 09:28 50.54604 3.38223 35245 ft 464 kts 24°
2026-05-09 09:28 50.57595 3.40299 35545 ft 463 kts 24°
2026-05-09 09:29 50.60503 3.42331 35848 ft 463 kts 24°
2026-05-09 09:29 50.63464 3.44407 36151 ft 462 kts 24°
2026-05-09 09:29 50.66404 3.46472 36451 ft 462 kts 24°
2026-05-09 09:29 50.69338 3.48535 36722 ft 462 kts 24°
2026-05-09 09:30 50.72238 3.50577 36994 ft 461 kts 24°
2026-05-09 09:30 50.75176 3.52649 37240 ft 461 kts 24°
2026-05-09 09:30 50.78106 3.54718 37485 ft 461 kts 24°
2026-05-09 09:30 50.81041 3.56794 37740 ft 461 kts 24°
2026-05-09 09:31 50.83942 3.58847 37989 ft 460 kts 24°
2026-05-09 09:31 50.86871 3.60923 38284 ft 459 kts 24°
2026-05-09 09:31 50.89790 3.62997 38540 ft 458 kts 24°
2026-05-09 09:32 50.95576 3.67113 38910 ft 458 kts 24°
2026-05-09 09:32 50.98491 3.69192 39047 ft 458 kts 24°
2026-05-09 09:32 51.01402 3.71271 39118 ft 459 kts 24°
2026-05-09 09:33 51.07220 3.75433 39102 ft 457 kts 24°
2026-05-09 09:33 51.12991 3.79574 39107 ft 458 kts 24°
2026-05-09 09:34 51.18783 3.83740 39109 ft 454 kts 24°
2026-05-09 09:34 51.24552 3.87902 39115 ft 454 kts 24°
2026-05-09 09:36 51.47515 4.04563 39125 ft 452 kts 21°
2026-05-09 09:37 51.53386 4.08006 39137 ft 452 kts 19°
2026-05-09 09:37 51.59289 4.11532 39124 ft 451 kts 19°
2026-05-09 09:38 51.65141 4.15060 39128 ft 452 kts 19°
2026-05-09 09:38 51.71035 4.18625 39128 ft 452 kts 19°
2026-05-09 09:39 51.76914 4.22190 39147 ft 451 kts 19°
2026-05-09 09:39 51.82776 4.25756 39153 ft 451 kts 19°
2026-05-09 09:40 51.88659 4.29343 39155 ft 451 kts 19°
2026-05-09 09:40 51.94551 4.32947 39156 ft 451 kts 19°
2026-05-09 09:41 52.00397 4.36532 39161 ft 451 kts 19°
2026-05-09 09:41 52.06280 4.40151 39144 ft 451 kts 19°
2026-05-09 09:42 52.12162 4.43779 39146 ft 451 kts 19°
2026-05-09 09:42 52.17999 4.47389 39147 ft 451 kts 19°
2026-05-09 09:43 52.23876 4.51034 39142 ft 452 kts 19°
2026-05-09 09:43 52.29756 4.54692 39146 ft 452 kts 19°
2026-05-09 09:44 52.35640 4.58362 39140 ft 452 kts 19°
2026-05-09 09:44 52.41487 4.62021 39149 ft 452 kts 19°
2026-05-09 09:45 52.47374 4.65713 39150 ft 452 kts 19°
2026-05-09 09:45 52.53212 4.69387 39153 ft 452 kts 19°
2026-05-09 09:46 52.59088 4.73095 39153 ft 452 kts 19°
2026-05-09 09:46 52.64970 4.76817 39151 ft 452 kts 19°
2026-05-09 09:47 52.70722 4.80466 39158 ft 452 kts 19°
2026-05-09 09:47 52.76568 4.84188 39158 ft 452 kts 19°
2026-05-09 09:48 52.82422 4.87924 39158 ft 452 kts 19°
2026-05-09 09:48 52.88290 4.91681 39157 ft 452 kts 19°
2026-05-09 09:49 52.94175 4.95458 39161 ft 453 kts 19°
2026-05-09 09:49 53.00031 4.99229 39159 ft 453 kts 19°
2026-05-09 09:50 53.05921 5.03033 39178 ft 453 kts 19°
2026-05-09 09:50 53.11805 5.06843 39181 ft 453 kts 19°
2026-05-09 09:51 53.17654 5.10640 39186 ft 453 kts 19°
2026-05-09 09:51 53.20556 5.12531 39186 ft 438 kts 19°
2026-05-09 09:51 53.23344 5.14349 39180 ft 425 kts 19°
2026-05-09 09:52 53.28863 5.17955 39186 ft 427 kts 19°
2026-05-09 09:52 53.34410 5.21588 39185 ft 433 kts 19°
2026-05-09 09:53 53.40068 5.25305 39183 ft 439 kts 19°
2026-05-09 09:53 53.45808 5.29087 39192 ft 446 kts 19°
2026-05-09 09:54 53.51625 5.32931 39193 ft 452 kts 19°
2026-05-09 09:54 53.57492 5.36820 39192 ft 457 kts 19°
2026-05-09 09:55 53.63414 5.40755 39191 ft 457 kts 19°
2026-05-09 09:55 53.69302 5.44682 39189 ft 457 kts 19°
2026-05-09 09:56 53.75220 5.48639 39184 ft 457 kts 19°
2026-05-09 09:56 53.81141 5.52612 39183 ft 457 kts 19°
2026-05-09 09:57 53.87072 5.56603 39202 ft 457 kts 19°
2026-05-09 09:57 53.92948 5.60569 39191 ft 458 kts 19°
2026-05-09 09:58 53.98873 5.64579 39189 ft 458 kts 19°
2026-05-09 09:58 54.04805 5.68608 39196 ft 458 kts 19°
2026-05-09 09:59 54.10690 5.72616 39194 ft 458 kts 19°
2026-05-09 09:59 54.16612 5.76662 39200 ft 458 kts 19°
2026-05-09 10:00 54.22542 5.80727 39198 ft 458 kts 19°
2026-05-09 10:00 54.28465 5.84799 39204 ft 458 kts 19°
2026-05-09 10:01 54.34344 5.88854 39197 ft 457 kts 19°
2026-05-09 10:01 54.40255 5.92942 39203 ft 457 kts 19°
2026-05-09 10:02 54.46115 5.97009 39200 ft 457 kts 19°
2026-05-09 10:02 54.52028 6.01124 39201 ft 457 kts 19°
2026-05-09 10:03 54.57892 6.05219 39208 ft 457 kts 19°
2026-05-09 10:03 54.63797 6.09355 39212 ft 457 kts 19°
2026-05-09 10:04 54.69691 6.13495 39207 ft 457 kts 19°
2026-05-09 10:04 54.75597 6.17655 39206 ft 458 kts 19°
2026-05-09 10:05 54.81458 6.21796 39208 ft 457 kts 19°
2026-05-09 10:05 54.87362 6.25980 39215 ft 458 kts 19°
2026-05-09 10:06 54.93241 6.30161 39209 ft 458 kts 19°
2026-05-09 10:06 54.99158 6.34370 39211 ft 458 kts 17°
2026-05-09 10:07 55.05154 6.38101 39221 ft 457 kts 17°
2026-05-09 10:07 55.11120 6.41853 39231 ft 457 kts 16°
2026-05-09 10:08 55.17128 6.45651 39220 ft 458 kts 16°
2026-05-09 10:08 55.23109 6.49444 39221 ft 459 kts 17°
2026-05-09 10:09 55.29117 6.53266 39217 ft 459 kts 17°
2026-05-09 10:09 55.34115 6.56455 39221 ft 459 kts 17°
2026-05-09 10:10 55.40095 6.60281 39225 ft 460 kts 16°
2026-05-09 10:10 55.46122 6.64151 39227 ft 460 kts 16°
2026-05-09 10:11 55.52144 6.68030 39226 ft 460 kts 16°
2026-05-09 10:11 55.58136 6.71902 39226 ft 460 kts 17°
2026-05-09 10:12 55.64150 6.75801 39237 ft 460 kts 17°
2026-05-09 10:12 55.70138 6.79696 39231 ft 460 kts 17°
2026-05-09 10:13 55.76160 6.83625 39236 ft 460 kts 17°
2026-05-09 10:13 55.82182 6.87568 39239 ft 460 kts 17°
2026-05-09 10:14 55.88170 6.91501 39230 ft 460 kts 17°
2026-05-09 10:14 55.94193 6.95471 39235 ft 460 kts 17°
2026-05-09 10:15 56.00161 6.99418 39233 ft 460 kts 17°
2026-05-09 10:15 56.06175 7.03407 39239 ft 460 kts 17°
2026-05-09 10:16 56.12192 7.07412 39253 ft 461 kts 16°
2026-05-09 10:16 56.18178 7.11411 39239 ft 461 kts 16°
2026-05-09 10:17 56.24195 7.15443 39244 ft 461 kts 16°
2026-05-09 10:17 56.30219 7.19493 39244 ft 461 kts 16°
2026-05-09 10:18 56.36192 7.23523 39249 ft 461 kts 17°
2026-05-09 10:18 56.42217 7.27602 39251 ft 462 kts 17°
2026-05-09 10:19 56.48249 7.31699 39245 ft 462 kts 17°
2026-05-09 10:19 56.54273 7.35804 39249 ft 462 kts 17°
2026-05-09 10:20 56.60264 7.39901 39252 ft 462 kts 17°
2026-05-09 10:20 56.66303 7.44044 39249 ft 464 kts 17°
2026-05-09 10:21 56.72352 7.48209 39250 ft 465 kts 17°
2026-05-09 10:21 56.78541 7.52486 39246 ft 465 kts 17°